User: anonymous   Login
Location: College Park
(38.9810°N, 76.9370°W)
Time: 05:06:02
(UTC-05:00)
Language:

Envisat - Orbit

View from above orbital plane
View from above orbital plane
View from above satellite
View from above satellite

Ground track
Ground track

The orbit data is extracted from the following two-line orbital elements,

1 27386U 02009A   18017.85053019 -.00000014  00000-0  90439-5 0  9991
2 27386  98.2051  58.8433 0001412  83.4150 276.7190 14.37913247831929
Epoch (UTC): 17 January 2018 20:24:45
Eccentricity: 0.0001412
inclination: 98.2051°
perigee height: 764 km
apogee height: 766 km
right ascension of ascending node: 58.8433°
argument of perigee: 83.4150°
revolutions per day: 14.37913247
mean anomaly at epoch: 276.7190°
orbit number at epoch: 83192

The dashed part of the orbit path shows where the satellite is in the earth's shadow,  

DLR